Flag for Isle of Man Weather past 2 weeks in Ramsey, Isle of Man

Now
57 °F

Passing clouds.


Feels Like: 53 °F
Forecast: 53 / 60 °F
Wind: 20 mph from Northwest

Location: Isle Of Man / Ronaldsway Airport

Current Time: Jul 29, 2015 at 7:03:30 PM

Latest Report: Jul 29, 2015 at 6:20 PM


Visibility: N/A

Pressure: 29.95 "Hg

Humidity: 63%

Dew point: 45 °F

Location of RamseyLocation

Historic Weather in Ramsey — Graph

°F

Ramsey temperature yesterday

Maximum temperature yesterday: 59 °F (at 2:50 PM)
Minimum temperature yesterday: 52 °F (at 6:20 AM)
Average temperature yesterday: 55 °F

Past Weeks' High & Low Weather Summary

 TemperatureHumidityPressure
High64 °F (Jul 16, 1:50 PM)100% (Jul 16, 9:20 PM)30.15 "Hg (Jul 16, 9:20 PM)
Low48 °F (Jul 15, 4:50 AM)39% (Jul 15, 4:50 PM)29.30 "Hg (Jul 26, 7:50 PM)
Average57 °F80%29.80 "Hg
* Reported Jul 14 5:20 PM — Jul 29 5:50 PM, Ramsey, Weather by CustomWeather, © 2015

Note: Actual official high and low records may vary slightly from our data, if they occured in-between our weather recording intervals... More about our weather records

Advertising

Ramsey weather history for previous 24 hours

 ConditionsComfort  
Time TempWeatherWind HumidityBarometerVisibility
5:50 PM
Wed, Jul 29
59 °FPassing clouds.18 mph59%29.95 "HgN/A
5:20 PM59 °FPassing clouds.16 mph59%29.95 "HgN/A
4:50 PM59 °FPassing clouds.17 mph68%29.92 "HgN/A
4:20 PM59 °FPassing clouds.16 mph63%29.92 "HgN/A
3:50 PM61 °FPassing clouds.17 mph63%29.92 "HgN/A
3:20 PM59 °FPassing clouds.17 mph68%29.92 "HgN/A
2:50 PM59 °FPassing clouds.15 mph68%29.92 "HgN/A
2:20 PM59 °FPassing clouds.14 mph63%29.92 "HgN/A
1:50 PM61 °FPassing clouds.16 mph59%29.89 "HgN/A
1:20 PM59 °FPassing clouds.16 mph63%29.89 "HgN/A
12:50 PM59 °FPassing clouds.14 mph63%29.89 "HgN/A
12:20 PM61 °FPassing clouds.17 mph63%29.89 "HgN/A
11:50 AM59 °FPassing clouds.16 mph68%29.86 "HgN/A
11:20 AM57 °FPassing clouds.17 mph72%29.86 "HgN/A
10:50 AM57 °FPassing clouds.17 mph82%29.86 "HgN/A
10:20 AM55 °FPassing clouds.12 mph82%29.86 "HgN/A
9:50 AM55 °FRain showers. Broken clouds.15 mph88%29.86 "HgN/A
9:20 AM57 °FScattered clouds.14 mph72%29.83 "HgN/A
8:20 AM55 °FPassing clouds.12 mph82%29.83 "HgN/A
7:50 AM55 °FScattered clouds.10 mph82%29.80 "HgN/A
7:20 AM54 °FScattered clouds.10 mph88%29.80 "HgN/A
6:50 AM52 °FScattered clouds.7 mph94%29.71 "HgN/A
6:20 AM52 °FSprinkles. Passing clouds.9 mph88%29.80 "HgN/A
5:50 AM52 °FPassing clouds.10 mph88%29.77 "HgN/A
5:20 AM52 °FPartly cloudy.10 mph94%29.77 "HgN/A
4:50 AM54 °FPassing clouds.8 mph82%29.77 "HgN/A
3:50 AM52 °FPassing clouds.3 mph88%29.74 "HgN/A
3:20 AM54 °FPassing clouds.8 mph82%29.74 "HgN/A
2:50 AM54 °FPassing clouds.8 mph82%29.74 "HgN/A
2:20 AM52 °FPassing clouds.7 mph82%29.74 "HgN/A
1:50 AM52 °FPassing clouds.5 mph88%29.74 "HgN/A
12:50 AM52 °FPassing clouds.3 mph88%29.74 "HgN/A
11:50 PM
Tue, Jul 28
52 °FPassing clouds.3 mph88%29.71 "HgN/A
10:50 PM52 °FPassing clouds.3 mph88%29.71 "HgN/A
9:50 PM54 °FPassing clouds.5 mph88%29.71 "HgN/A
9:20 PM54 °FPassing clouds.5 mph82%29.71 "HgN/A
8:50 PM54 °FPassing clouds.3 mph88%29.71 "HgN/A
8:20 PM55 °FPassing clouds.5 mph82%29.68 "HgN/A
7:50 PM55 °FPassing clouds.8 mph77%29.71 "HgN/A
7:20 PM55 °FPassing clouds.9 mph72%29.68 "HgN/A
Weather by CustomWeather, © 2015

See weather overviewHow to use our weather pages